timestamp,surface_pressure_avg,surface_temp_avg,battery_voltage,lat,long
2020-07-12 00:09:01+00:00,223.9098,16.36,13.13,47.84626,-54.09684
2020-07-12 00:19:01+00:00,223.7814,16.38,12.81,47.84626,-54.09684
2020-07-12 00:29:01+00:00,226.0031,16.39,12.81,47.84626,-54.09684
2020-07-12 00:39:01+00:00,231.3131,16.35,12.81,47.84626,-54.09684
2020-07-12 00:49:01+00:00,235.5131,16.33,12.81,47.84626,-54.09684
2020-07-12 00:59:01+00:00,240.0115,16.36,12.81,47.84626,-54.09684
2020-07-12 01:09:01+00:00,244.2731,16.38,12.81,47.84626,-54.09684
2020-07-12 01:19:01+00:00,249.1864,16.39,12.73,47.84626,-54.09684
2020-07-12 01:29:01+00:00,254.2481,16.4,12.73,47.84626,-54.09684
2020-07-12 01:39:01+00:00,257.9381,16.4,12.73,47.84626,-54.09684
2020-07-12 01:49:01+00:00,259.9797,16.4,12.73,47.84626,-54.09684
2020-07-12 01:59:01+00:00,263.7898,16.4,12.73,47.84626,-54.09684
2020-07-12 02:09:01+00:00,269.8565,16.4,12.73,47.84626,-54.09684
2020-07-12 02:19:01+00:00,275.2581,16.4,12.73,47.84626,-54.09684
2020-07-12 02:29:01+00:00,281.5598,16.4,12.73,47.84626,-54.09684
2020-07-12 02:39:01+00:00,287.6913,16.4,12.73,47.84626,-54.09684
2020-07-12 02:49:01+00:00,296.0781,16.4,12.73,47.84626,-54.09684
2020-07-12 02:59:01+00:00,301.9197,16.4,12.73,47.84626,-54.09684
2020-07-12 03:09:01+00:00,307.1547,16.4,12.73,47.84626,-54.09684
2020-07-12 03:19:01+00:00,311.683,16.4,12.73,47.84626,-54.09684
2020-07-12 03:29:01+00:00,316.2297,16.39,12.73,47.84626,-54.09684
2020-07-12 03:39:01+00:00,315.293,16.38,12.73,47.84626,-54.09684
2020-07-12 03:49:01+00:00,317.9012,16.4,12.73,47.84626,-54.09684
2020-07-12 03:59:01+00:00,321.9896,16.38,12.73,47.84626,-54.09684
2020-07-12 04:09:01+00:00,322.8362,16.3,12.73,47.84626,-54.09684
2020-07-12 04:19:01+00:00,323.158,16.2,12.73,47.84626,-54.09684
2020-07-12 04:29:01+00:00,323.4863,16.1,12.73,47.84626,-54.09684
2020-07-12 04:39:01+00:00,320.8864,16.1,12.73,47.84626,-54.09684
2020-07-12 04:49:01+00:00,319.4513,16.17,12.73,47.84626,-54.09684
2020-07-12 04:59:01+00:00,323.5712,16.1,12.73,47.84626,-54.09684
2020-07-12 05:09:01+00:00,324.4163,16.1,12.73,47.84626,-54.09684
2020-07-12 05:19:01+00:00,316.1614,16.17,12.73,47.84626,-54.09684
2020-07-12 05:29:01+00:00,314.1996,16.21,12.73,47.84626,-54.09684
2020-07-12 05:39:01+00:00,314.648,16.25,12.73,47.84626,-54.09684
2020-07-12 05:49:01+00:00,310.6847,16.25,12.73,47.84626,-54.09684
2020-07-12 05:59:01+00:00,303.0631,16.3,12.73,47.84626,-54.09684
2020-07-12 06:09:01+00:00,302.8897,16.3,12.73,47.84626,-54.09684
2020-07-12 06:19:01+00:00,303.8197,16.2,12.73,47.84626,-54.09684
2020-07-12 06:29:01+00:00,297.1447,16.1,12.73,47.84626,-54.09684
2020-07-12 06:39:01+00:00,292.6047,16.19,12.73,47.84626,-54.09684
2020-07-12 06:49:01+00:00,291.318,16.2,12.73,47.84626,-54.09684
2020-07-12 06:59:01+00:00,284.8148,16.24,12.73,47.84626,-54.09684
2020-07-12 07:09:01+00:00,276.4164,16.2,12.73,47.84626,-54.09684
2020-07-12 07:19:01+00:00,271.9314,16.19,12.65,47.84626,-54.09684
2020-07-12 07:29:01+00:00,269.0697,16.2,12.65,47.84626,-54.09684
2020-07-12 07:39:01+00:00,260.3947,16.23,12.65,47.84626,-54.09684
2020-07-12 07:49:01+00:00,253.2115,16.2,12.65,47.84626,-54.09684
2020-07-12 07:59:01+00:00,246.3431,16.2,12.65,47.84626,-54.09684
2020-07-12 08:09:01+00:00,239.208,16.2,12.65,47.84626,-54.09684
2020-07-12 08:19:01+00:00,232.7165,16.2,12.65,47.84626,-54.09684
2020-07-12 08:29:01+00:00,225.9865,16.2,12.65,47.84626,-54.09684
2020-07-12 08:39:01+00:00,218.8264,16.19,12.65,47.84626,-54.09684
2020-07-12 08:49:01+00:00,214.9981,16.2,12.65,47.84626,-54.09684
2020-07-12 08:59:01+00:00,214.5182,16.2,12.65,47.84626,-54.09684
2020-07-12 09:09:01+00:00,210.8698,16.2,12.65,47.84626,-54.09684
2020-07-12 09:19:01+00:00,205.5865,16.2,12.65,47.84626,-54.09684
2020-07-12 09:29:01+00:00,203.3498,16.2,12.65,47.84626,-54.09684
2020-07-12 09:39:01+00:00,204.1464,16.2,12.65,47.84626,-54.09684
2020-07-12 09:49:01+00:00,203.7747,16.2,12.65,47.84626,-54.09684
2020-07-12 09:59:01+00:00,203.9198,16.2,12.65,47.84626,-54.09684
2020-07-12 10:09:01+00:00,206.4297,16.2,12.65,47.84626,-54.09684
2020-07-12 10:19:01+00:00,206.8931,16.2,12.65,47.84626,-54.09684
2020-07-12 10:29:01+00:00,206.4515,16.2,12.65,47.84626,-54.09684
2020-07-12 10:39:01+00:00,208.0181,16.2,12.65,47.84626,-54.09684
2020-07-12 10:49:01+00:00,209.9748,16.2,12.65,47.84626,-54.09684
2020-07-12 10:59:01+00:00,211.2281,16.21,12.65,47.84626,-54.09684
2020-07-12 11:09:01+00:00,215.4381,16.28,12.65,47.84626,-54.09684
2020-07-12 11:19:01+00:00,222.4031,16.3,12.73,47.84626,-54.09684
2020-07-12 11:29:01+00:00,223.9198,16.3,12.73,47.84626,-54.09684
2020-07-12 11:39:01+00:00,223.1931,16.35,12.73,47.84626,-54.09684
2020-07-12 11:49:01+00:00,227.5514,16.39,12.73,47.84626,-54.09684
2020-07-12 11:59:01+00:00,232.0314,16.4,12.73,47.84626,-54.09684
2020-07-12 12:09:01+00:00,232.8965,16.4,12.73,47.84626,-54.09684
2020-07-12 12:19:01+00:00,234.1497,16.46,13.29,47.84626,-54.09684
2020-07-12 12:29:01+00:00,237.6898,16.47,13.29,47.84626,-54.09684
2020-07-12 12:39:01+00:00,238.9814,16.47,13.29,47.84626,-54.09684
2020-07-12 12:49:01+00:00,239.7397,16.45,13.29,47.84626,-54.09684
2020-07-12 12:59:01+00:00,242.923,16.44,13.29,47.84626,-54.09684
2020-07-12 13:09:01+00:00,247.2581,16.46,13.29,47.84626,-54.09684
2020-07-12 13:19:01+00:00,249.7481,16.47,13.37,47.84626,-54.09684
2020-07-12 13:29:01+00:00,251.3897,16.48,13.37,47.84626,-54.09684
2020-07-12 13:39:01+00:00,253.4781,16.49,13.37,47.84626,-54.09684
2020-07-12 13:49:01+00:00,255.5631,16.49,13.37,47.84626,-54.09684
2020-07-12 13:59:01+00:00,259.9681,16.49,13.37,47.84626,-54.09684
2020-07-12 14:09:01+00:00,264.1464,16.49,13.37,47.84626,-54.09684
2020-07-12 14:19:01+00:00,267.1964,16.5,13.6,47.84626,-54.09684
2020-07-12 14:29:01+00:00,268.1731,16.5,13.6,47.84626,-54.09684
2020-07-12 14:39:01+00:00,273.2131,16.5,13.6,47.84626,-54.09684
2020-07-12 14:49:01+00:00,278.6747,16.5,13.6,47.84626,-54.09684
2020-07-12 14:59:01+00:00,283.3514,16.5,13.6,47.84626,-54.09684
2020-07-12 15:09:01+00:00,286.8414,16.5,13.6,47.84626,-54.09684
2020-07-12 15:19:01+00:00,292.5331,16.5,13.68,47.84626,-54.09684
2020-07-12 15:29:01+00:00,298.8813,16.4,13.68,47.84626,-54.09684
2020-07-12 15:39:01+00:00,302.0363,16.4,13.68,47.84626,-54.09684
2020-07-12 15:49:01+00:00,304.4246,16.4,13.68,47.84626,-54.09684
2020-07-12 15:59:01+00:00,308.1813,16.4,13.68,47.84626,-54.09684
2020-07-12 16:09:01+00:00,309.428,16.4,13.68,47.84626,-54.09684
2020-07-12 16:19:01+00:00,309.2414,16.39,13.84,47.84626,-54.09684
2020-07-12 16:29:01+00:00,311.8146,16.39,13.84,47.84626,-54.09684
2020-07-12 16:39:01+00:00,314.8214,16.4,13.84,47.84626,-54.09684
2020-07-12 16:49:01+00:00,314.3497,16.4,13.84,47.84626,-54.09684
2020-07-12 16:59:01+00:00,314.2463,16.4,13.84,47.84626,-54.09684
2020-07-12 17:09:01+00:00,317.9613,16.12,13.84,47.84626,-54.09684
2020-07-12 17:19:01+00:00,318.6613,15.85,13.92,47.84626,-54.09684
2020-07-12 17:29:01+00:00,314.1263,16.03,13.92,47.84626,-54.09684
2020-07-12 17:39:01+00:00,314.4363,16.14,13.92,47.84626,-54.09684
2020-07-12 17:49:01+00:00,316.348,16.0,13.92,47.84626,-54.09684
2020-07-12 17:59:01+00:00,314.2513,15.9,13.92,47.84626,-54.09684
2020-07-12 18:09:01+00:00,310.6614,15.95,13.92,47.84626,-54.09684
2020-07-12 18:19:01+00:00,310.8547,16.0,13.92,47.84626,-54.09684
2020-07-12 18:29:01+00:00,308.9147,16.0,13.92,47.84626,-54.09684
2020-07-12 18:39:01+00:00,303.3613,16.04,13.92,47.84626,-54.09684
2020-07-12 18:49:01+00:00,302.558,16.09,13.92,47.84626,-54.09684
2020-07-12 18:59:01+00:00,301.9981,16.1,13.92,47.84626,-54.09684
2020-07-12 19:09:01+00:00,297.5047,16.2,13.92,47.84626,-54.09684
2020-07-12 19:19:01+00:00,289.9197,16.27,13.84,47.84626,-54.09684
2020-07-12 19:29:01+00:00,287.5831,16.3,13.84,47.84626,-54.09684
2020-07-12 19:39:01+00:00,285.708,16.3,13.84,47.84626,-54.09684
2020-07-12 19:49:01+00:00,280.7614,16.36,13.84,47.84626,-54.09684
2020-07-12 19:59:01+00:00,274.8847,16.39,13.84,47.84626,-54.09684
2020-07-12 20:09:01+00:00,271.9147,16.4,13.84,47.84626,-54.09684
2020-07-12 20:19:01+00:00,266.6314,16.4,13.76,47.84626,-54.09684
2020-07-12 20:29:01+00:00,259.5797,16.4,13.76,47.84626,-54.09684
2020-07-12 20:39:01+00:00,252.5948,16.4,13.76,47.84626,-54.09684
2020-07-12 20:49:01+00:00,248.8231,16.4,13.76,47.84626,-54.09684
2020-07-12 20:59:01+00:00,244.8697,16.4,13.76,47.84626,-54.09684
2020-07-12 21:09:01+00:00,240.4315,16.43,13.76,47.84626,-54.09684
2020-07-12 21:19:01+00:00,235.7881,16.48,13.53,47.84626,-54.09684
2020-07-12 21:29:01+00:00,232.493,16.5,13.53,47.84626,-54.09684
2020-07-12 21:39:01+00:00,228.8914,16.5,13.53,47.84626,-54.09684
2020-07-12 21:49:01+00:00,226.3048,16.5,13.53,47.84626,-54.09684
2020-07-12 21:59:01+00:00,222.4897,16.5,13.53,47.84626,-54.09684
2020-07-12 22:09:01+00:00,219.9297,16.5,13.53,47.84626,-54.09684
2020-07-12 22:19:01+00:00,219.8831,16.5,13.13,47.84626,-54.09684
2020-07-12 22:29:01+00:00,220.0598,16.5,13.13,47.84626,-54.09684
2020-07-12 22:39:01+00:00,217.3931,16.5,13.13,47.84626,-54.09684
2020-07-12 22:49:01+00:00,215.5964,16.5,13.13,47.84626,-54.09684
2020-07-12 22:59:01+00:00,218.1365,16.5,13.13,47.84626,-54.09684
2020-07-12 23:09:01+00:00,223.2581,16.5,13.13,47.84626,-54.09684
2020-07-12 23:19:01+00:00,226.3431,16.5,12.81,47.84626,-54.09684
2020-07-12 23:29:01+00:00,227.8248,16.5,12.81,47.84626,-54.09684
2020-07-12 23:39:01+00:00,229.773,16.5,12.81,47.84626,-54.09684
2020-07-12 23:49:01+00:00,233.0314,16.5,12.81,47.84626,-54.09684
2020-07-12 23:59:01+00:00,233.8031,16.5,12.81,47.84626,-54.09684
